Location: Aultman
(40.9284°N, 81.4173°W)
Time: 08:44:10
(UTC+00:00)

Cosmos 158 Rocket - Pass Details

Date: 24 January 2021
Orbit: 698 x 794 km, 74.0° (Epoch: 02 March)

Event Time Altitude Azimuth Distance (km) Brightness Sun altitude
Rises 23:42:57 0° 339° (NNW) 3,277 7.4 -13.2°
Reaches altitude 10° 23:45:21 10° 338° (NNW) 2,354 6.6 -13.6°
Maximum altitude 23:50:43 78° 253° (WSW) 814 4.2 -14.6°
Drops below altitude 10° 23:56:05 10° 168° (SSE) 2,353 6.5 -15.6°
Sets 23:58:28 0° 166° (SSE) 3,276 7.3 -16.1°
